Terminal Aerodrome Forecast
Issued by NWS Denver/Boulder, CO

Home | Current Version | Previous Version | Text Only | Print | Product List | Glossary On
Versions: 1 2 3 4 5 6 7 8 9 10 11 12 13 14 15 16 17 18 19 20 21 22 23 24 25 26 27 28 29 30 31 32 33 34 35 36 37 38 39 40 41 42 43 44 45 46 47 48 49 50
000
FTUS45 KBOU 221226 AAA
TAFDEN
TAF AMD
KDEN 221226Z 2212/2318 26006KT P6SM FEW140 FEW200
     FM221330 35008KT P6SM FEW140 FEW220
     FM221600 02010KT P6SM FEW110 SCT220
     FM222100 08011KT P6SM SCT100 BKN180
     FM230100 14009KT P6SM FEW100 BKN220
     FM230600 17008KT P6SM FEW110 SCT200=

USA.gov is the U.S. government's official web portal to all federal, state and local government web resources and services.